Weather History for Hawthorne, CA

Change the Weather History Date:

Friday, December 20, 2013

  Actual Average Record
Temperature  
Mean Temperature 54 °F -  
Max Temperature 62 °F 64 °F 82 °F (1954)
Min Temperature 45 °F 46 °F 38 °F (1967)
Degree Days  
Heating Degree Days 12    
Growing Degree Days 4 (Base 50)    
Moisture  
Dew Point 43 °F    
Average Humidity 70    
Maximum Humidity 86    
Minimum Humidity 44    
Precipitation  
Precipitation 0.00 in - - ()
Sea Level Pressure  
Sea Level Pressure 29.85 in    
Wind  
Wind Speed 2 mph (SSE)    
Max Wind Speed 8 mph    
Max Gust Speed -    
Visibility 10 miles    
Events      
Averages and records for this station are not official NWS values.
T = Trace of Precipitation, MM = Missing Value Source: NWS Daily Summary

Daily Weather History Graph

Daily Weather History Graph

Search for Another Location

Airport:

Trip Planner

Search our weather history database for the weather conditions in past years. The results will help you decide how hot, cold, wet, or windy it might be!

Date:

Astronomy

Dec. 20, 2013 Rise Set
Actual Time 6:54 AM PST 4:48 PM PST
Civil Twilight 6:26 AM PST 5:15 PM PST
Nautical Twilight 5:55 AM PST 5:47 PM PST
Astronomical Twilight 5:24 AM PST 6:17 PM PST
Moon 8:05 PM PST (12/20) 8:58 AM PST (12/20)
Length of Visible Light 10h 49m
Length of Day
9h 53m
Waning Gibbous, 90% of the Moon is Illuminated
Dec 20
Waning Gibbous
Dec 25
Last Quarter
Jan 1
New
Jan 7
First Quarter
Jan 15
Full

Hourly Weather History & Observations

Time (PST) Temp. Windchill Dew Point Humidity Pressure Visibility Wind Dir Wind Speed Gust Speed Precip Events Conditions
12:53 AM 48.9 °F - 43.0 °F 80% 29.78 in 10.0 mi Calm Calm - N/A   Clear
1:53 AM 48.0 °F - 43.0 °F 83% 29.79 in 10.0 mi ENE 3.5 mph - N/A   Clear
2:53 AM 46.9 °F - 43.0 °F 86% 29.78 in 10.0 mi Calm Calm - N/A   Clear
3:53 AM 46.0 °F - 42.1 °F 86% 29.78 in 10.0 mi Calm Calm - N/A   Clear
4:53 AM 45.0 °F - 41.0 °F 86% 29.78 in 9.0 mi Calm Calm - N/A   Clear
5:53 AM 45.0 °F - 41.0 °F 86% 29.79 in 7.0 mi Calm Calm - N/A   Clear
6:53 AM 45.0 °F 43.5 °F 41.0 °F 86% 29.82 in 10.0 mi Variable 3.5 mph - N/A   Clear
7:53 AM 46.0 °F - 41.0 °F 83% 29.85 in 9.0 mi Calm Calm - N/A   Clear
8:53 AM 52.0 °F - 42.1 °F 69% 29.86 in 10.0 mi East 4.6 mph - N/A   Clear
9:53 AM 54.0 °F - 42.1 °F 64% 29.88 in 10.0 mi ESE 4.6 mph - N/A   Clear
10:53 AM 57.0 °F - 39.9 °F 53% 29.88 in 10.0 mi Variable 3.5 mph - N/A   Clear
11:53 AM 61.0 °F - 39.0 °F 44% 29.85 in 10.0 mi Calm Calm - N/A   Clear
12:53 PM 61.0 °F - 39.9 °F 46% 29.85 in 10.0 mi Calm Calm - N/A   Clear
1:53 PM 62.1 °F - 41.0 °F 46% 29.84 in 10.0 mi West 3.5 mph - N/A   Clear
2:53 PM 62.1 °F - 43.0 °F 50% 29.84 in 10.0 mi SSE 5.8 mph - N/A   Clear
3:53 PM 61.0 °F - 44.1 °F 54% 29.85 in 10.0 mi South 6.9 mph - N/A   Clear
4:53 PM 57.9 °F - 48.9 °F 72% 29.87 in 10.0 mi WSW 8.1 mph - N/A   Clear
5:53 PM 57.0 °F - 46.0 °F 67% 29.88 in 10.0 mi Calm Calm - N/A   Clear
6:53 PM 57.0 °F - 46.0 °F 67% 29.90 in 10.0 mi Calm Calm - N/A   Clear
7:53 PM 55.9 °F - 46.0 °F 69% 29.91 in 10.0 mi Calm Calm - N/A   Clear
8:53 PM 55.0 °F - 46.0 °F 72% 29.91 in 10.0 mi Calm Calm - N/A   Clear
9:53 PM 54.0 °F - 46.0 °F 75% 29.93 in 10.0 mi Calm Calm - N/A   Clear
10:53 PM 52.0 °F - 46.0 °F 80% 29.95 in 10.0 mi Calm Calm - N/A   Clear
11:53 PM 52.0 °F - 46.0 °F 80% 29.94 in 10.0 mi Calm Calm - N/A   Clear